Location: Bailleul
(50.3375°N, 2.8513°E)
Time: 04:48:45
(UTC+00:00)

Cosmos 2219 - Pass Details

Date: 19 April 2021
Orbit: 834 x 859 km, 71.1° (Epoch: 09 May)

Event Time Altitude Azimuth Distance (km) Brightness Sun altitude
Exits shadow 19:49:42 - 158° (SSE) 2,872 5.5 -9.5°
Reaches altitude 10° 19:51:08 10° 149° (SSE) 2,440 5.1 -9.7°
Maximum altitude 19:55:17 22° 101° (E) 1,763 4.3 -10.2°
Drops below altitude 10° 19:59:26 10° 53° (NE) 2,456 5.4 -10.8°
Sets 20:02:24 0° 39° (NE) 3,398 6.3 -11.2°
